This is the latest recevied weather packets stored in our database for station/object N3EDS. If no packets are shown the sender has not sent any weather packets the latest 10 day(s).
| Time | Temp. | Humidity | Pressure | Rain* | Wind** | Luminosity | Snow |
|---|---|---|---|---|---|---|---|
| 1777579070 | 6.67° C | 85% | 1013.1 hPa | 0 mm | - | 80 W/m² | - |
| 1777578765 | 7.22° C | 83% | 1012.9 hPa | 0 mm | - | 177 W/m² | - |
| 1777578464 | 7.22° C | 85% | 1012.8 hPa | 0 mm | - | 255 W/m² | - |
| 1777578160 | 7.22° C | 85% | 1012.7 hPa | 0 mm | - | 307 W/m² | - |
| 1777577856 | 6.67° C | 87% | 1012.9 hPa | 0 mm | - | 288 W/m² | - |
| 1777577552 | 7.22° C | 87% | 1012.7 hPa | 0 mm | - | 192 W/m² | - |
| 1777577249 | 6.67° C | 89% | 1012.8 hPa | 0 mm | - | 201 W/m² | - |
| 1777576945 | 6.67° C | 89% | 1012.8 hPa | 0 mm | - | 256 W/m² | - |
| 1777576641 | 6.11° C | 92% | 1012.7 hPa | 0 mm | - | 639 W/m² | - |
| 1777576336 | 6.67° C | 92% | 1012.8 hPa | 0 mm | - | 108 W/m² | - |
| 1777576033 | 6.67° C | 89% | 1013 hPa | 0 mm | - | 85 W/m² | - |
| 1777575729 | 6.67° C | 92% | 1012.6 hPa | 0 mm | - | 221 W/m² | - |
| 1777575425 | 6.11° C | 91% | 1012.4 hPa | 0 mm | - | 296 W/m² | - |
| 1777575121 | 6.67° C | 93% | 1012.4 hPa | 0 mm | - | 200 W/m² | - |
| 1777574816 | 6.11° C | 92% | 1012.7 hPa | 0 mm | - | 134 W/m² | - |
| 1777574515 | 6.67° C | 92% | 1012.5 hPa | 0 mm | - | 153 W/m² | - |
| 1777574210 | 6.67° C | 93% | 1012.5 hPa | 0 mm | - | 240 W/m² | - |
| 1777573905 | 6.11° C | 95% | 1012.2 hPa | 0 mm | - | 279 W/m² | - |
| 1777573599 | 6.11° C | 94% | 1012.3 hPa | 0 mm | - | 119 W/m² | - |
| 1777573296 | 6.67° C | 94% | 1012.5 hPa | 0 mm | - | 145 W/m² | - |
* Rain latest hour (hover to see other rain measurements)
** Current wind speed in m/s (hover to see current wind gust speed)